SCP
0 0 0 0 0 0 0 0 0 0 0 0 0 0 0 0 0 0 0 0 0 0 0 0 0 0 0 0 0 0 0 0 0 0 0 0 0 0 0 0 0 0 0
0 0 0 0 0 0 0 0 0 0 0 0 0 0 0 0 0 0 0 0 0 0 0 0 0 0 0 0 0 0 0 0 0 0 0 0 0 0 0 0 0 0 0
0 0 0 0 0 0 0 0 0 0 0 0 0 0 0 0 0 0 0 0 0 0 0 0 0 0 0 0 0 0 0 0 0 0 0 0 0 0 0 0 0 0 0
0 0 0 0 0 0 0 0 0 0 0 0 0 0 0 0 0 0 0 0 0 0 0 0 0 0 0 0 0 0 0 0 0 0 0 0 0 0 0 0 0 0 0
0 0 0 0 0 0 0 0 0 0 0 0 0 0 0 0 0 0 0 0 0 0 0 0 0 0 0 0 0 0 0 0 0 0 0 0 0 0 0 0 0 0 0
0 0 0 0 0 0 0 0 0 0 0 0 0 0 0 0 0 0 0 0 0 0 0 0 0 0 0 0 0 0 0 0 0 0 0 0 0 0 0 0 0 0 0
0 0 0 0 0 0 0 0 0 0 0 0 0 0 0 0 0 0 0 0 0 0 0 0 0 0 0 0 0 0 0 0 0 0 0 0 0 0 0 0 0 0 0
0 0 0 0 0 0 0 0 0 0 0 0 0 0 0 0 0 0 0 0 0 0 0 0 0 0 0 0 0 0 0 0 0 0 0 0 0 0 0 0 0 0 0
0 0 0 0 0 0 0 0 0 0 0 0 0 0 0 0 0 0 0 0 0 0 0 0 0 0 0 0 0 0 0 0 0 0 0 0 0 0 0 0 0 0 0
0 0 0 0 0 0 0 0 0 0 0 0 0 0 0 0 0 0 0 0 0 0 0 0 0 0 0 0 0 0 0 0 0 0 0 0 0 0 0 0 0 0 0
0 0 0 0 0 0 0 0 0 0 0 0 0 0 0 0 0 0 0 0 0 0 0 0 0 0 0 0 0 0 0 0 0 0 0 0 0 0 0 0 0 0 0
0 0 0 0 0 0 0 0 0 0 0 0 0 0 0 0 0 0 0 0 0 0 0 0 0 0 0 0 0 0 0 0 0 0 0 0 0 0 0 0 0 0 0
0 0 0 0 0 0 0 0 0 0 0 0 0 0 0 0 0 0 0 0 0 0 0 0 0 0 0 0 0 0 0 0 0 0 0 0 0 0 0 0 0 0 0
0 0 0 0 0 0 0 0 0 0 0 0 0 0 0 0 0 0 0 0 0 0 0 0 0 0 0 0 0 0 0 0 0 -0 -0 -0 0 0 0 0 0 0 0
0 0 0 0 0 0 0 0 0 0 0 0 0 0 0 0 0 0 0 0 0 0 0 0 0 0 0 0 0 0 0 -0 -0 -0 -0 -0 -0 -0 -0 -0 0 -0 -0
0 0 0 0 0 0 0 0 0 0 0 0 0 0 0 0 0 0 0 0 0 0 0 0 0 0 0 0 0 0 0 0 0 0 -0 -0 -0 -0 -0 -0 -0 -0 -0
0 0 0 0 0 0 0 0 0 0 0 0 0 0 0 0 0 0 0 0 0 0 0 0 0 0 0 0 0 0 0 0 0 0 0 0 0 0 0 0 -0 -0 0
0 0 0 0 0 0 0 0 0 0 0 0 0 0 0 0 0 0 0 0 0 0 0 0 0 0 0 0 0 0 0 -0 -0 -0 -0 -0 -0 0 0 0 0 0 0
0 0 0 0 0 0 0 0 0 0 0 0 0 0 0 0 0 0 0 0 0 0 0 0 0 0 0 0 0 -0 -0 -0 -0 -0 -0 -0 -0 -0 -0 -0 -0 -0 -0
0 0 0 0 0 0 0 0 0 0 0 0 0 0 0 0 0 0 0 0 0 0 0 0 0 0 0 0 0 0 -0 -0 0 0 -0 -0 -0 -0 -0 0 0 0 0
0 0 0 0 0 0 0 0 0 0 0 0 0 0 0 0 0 0 0 0 0 0 0 0 0 0 0 0 -0 -0 -0 -0 -0 -0 -0 0 0 0 0 0 -0 -0 -0
0 0 0 0 0 0 0 0 0 0 0 0 0 0 0 0 0 0 0 0 0 0 0 0 0 0 0 0 0 0 -0 -0 -0 -0 0 0 0 0 0 0 0 -0 -0
0 0 0 0 0 0 0 0 0 0 0 0 0 0 0 0 0 0 0 0 0 0 0 0 0 0 0 0 0 0 0 0 0 0 0 0 0 0 0 0 0 0 0
0 0 0 0 0 0 0 0 0 0 0 0 0 0 0 0 0 0 0 0 0 0 0 0 0 0 0 0 0 0 0 0 0 0 0 0 0 0 0 0 0 0 0
0 0 0 0 0 0 0 0 0 0 0 0 0 0 0 0 0 0 0 0 0 0 0 0 0 0 0 0 0 0 0 0 0 0 0 0 0 0 0 0 0 0 -0
0 0 0 0 0 0 0 0 0 0 0 0 0 0 0 0 0 0 0 0 0 0 0 0 0 0 0 0 0 0 0 0 0 0 0 0 0 0 0 0 0 0 0
Wind_Speed_500mb
47 44 41 37 33 27 21 17 15 14 14 14 16 18 19 19 19 19 19 18 18 19 19 21 20 18 18 14 13 14 20 26 29 30 30 29 32 38 43 44 42 42 42
53 50 47 42 36 31 26 22 18 17 16 17 18 19 19 20 20 20 20 19 18 17 16 18 18 15 5 5 3 5 14 15 18 25 30 33 32 36 41 45 49 47 46
59 55 51 47 42 36 31 26 23 22 20 17 16 16 17 18 20 20 18 16 14 13 12 12 10 9 16 5 7 6 10 12 20 23 24 30 33 35 39 38 42 47 51
65 62 58 52 47 41 36 32 29 25 22 18 17 17 17 18 18 16 14 11 8 5 3 3 4 5 10 12 14 17 20 24 28 30 29 31 32 32 33 37 40 41 42
71 68 63 58 52 48 42 38 33 30 26 22 19 19 18 17 16 14 9 5 5 6 7 7 7 9 11 13 18 25 29 33 36 36 37 39 39 39 39 38 39 40 41
76 74 68 64 60 55 49 44 37 35 30 26 22 20 18 16 14 13 11 9 7 6 6 8 10 9 12 22 27 32 33 33 35 34 35 36 38 41 45 46 46 46 46
83 79 74 69 66 61 51 47 44 39 33 28 24 20 16 15 13 18 16 4 8 5 5 5 9 15 21 25 25 27 31 34 36 37 38 39 39 38 39 43 48 50 51
89 84 80 76 70 64 60 55 50 44 39 33 26 21 12 15 24 27 27 17 16 7 4 13 14 18 19 23 21 21 23 25 27 30 35 38 42 46 48 47 47 51 51
92 89 85 80 74 69 65 59 54 48 43 39 32 22 11 13 17 22 29 25 21 14 12 14 15 20 19 20 20 20 21 23 30 35 39 41 41 41 44 49 52 53 55
98 95 89 83 78 74 71 64 59 55 51 45 37 33 31 28 19 13 23 28 22 27 22 19 20 18 20 18 19 18 18 33 36 39 41 44 47 51 51 50 51 54 58
103 100 95 90 86 81 75 71 67 63 58 52 46 38 35 32 32 33 26 27 26 29 25 22 22 23 23 19 20 21 36 38 42 46 48 51 53 56 56 56 56 57 57
104 102 98 94 89 85 81 76 70 68 63 56 51 46 41 37 35 35 33 34 32 32 26 26 26 23 23 27 35 45 47 51 53 57 59 60 61 62 63 64 66 67 67
105 104 101 99 96 88 82 77 75 72 68 62 56 51 47 44 42 40 38 37 36 35 29 25 25 30 32 36 45 51 58 60 61 61 60 61 62 65 68 69 68 69 71
91 94 97 98 93 90 85 82 79 75 71 67 62 58 53 49 46 44 40 36 35 35 37 28 34 30 35 45 53 60 62 63 64 66 66 64 66 68 70 72 74 73 70
84 86 89 93 95 92 88 84 83 81 76 72 68 63 58 55 51 47 42 40 38 31 37 34 34 39 47 54 58 65 68 69 70 71 69 70 71 70 71 74 76 73 69
88 85 84 85 91 92 91 88 86 83 80 76 73 69 65 60 54 49 45 43 41 39 36 36 38 43 47 52 55 63 62 63 62 65 69 72 74 73 74 75 78 80 81
91 89 88 86 88 92 94 92 91 87 84 81 79 75 70 63 58 52 48 45 44 45 47 46 45 44 47 53 57 62 66 67 63 61 63 65 68 70 76 82 83 82 83
96 96 93 90 91 93 93 96 97 93 91 88 85 80 74 69 62 56 51 48 45 44 47 48 50 51 53 59 66 67 69 73 75 76 77 74 73 76 80 82 83 84 87
97 100 99 98 97 94 97 98 98 97 94 90 87 83 77 73 65 61 56 50 46 45 45 51 53 52 56 59 65 67 71 75 77 83 82 80 76 80 88 89 90 90 91
96 102 102 100 99 99 99 99 103 100 97 94 89 84 78 73 66 62 58 52 48 44 44 50 51 51 55 59 65 70 75 77 83 85 82 89 93 98 99 98 98 99 101
95 94 95 99 101 103 106 105 105 100 101 99 93 87 82 76 70 66 61 54 46 44 45 48 49 51 54 57 63 69 75 80 88 75 91 105 107 109 108 105 106 104 96
93 93 94 99 102 108 108 103 103 104 103 102 98 92 85 78 74 69 61 54 48 44 46 46 45 50 49 54 58 64 72 80 83 84 104 113 106 115 114 108 103 103 103
89 93 96 103 100 102 108 107 107 104 103 103 99 93 86 81 74 69 62 57 51 47 45 42 46 41 46 46 54 60 67 72 79 89 97 120 109 116 107 117 113 110 108
81 87 94 105 102 99 107 107 107 104 102 101 100 94 86 81 77 71 64 58 48 41 39 38 40 36 38 41 48 56 64 73 79 81 83 113 105 111 120 120 116 116 111
71 82 89 98 99 94 101 102 107 107 105 105 97 90 87 82 74 71 67 57 48 39 37 37 35 31 30 33 41 55 59 70 86 87 79 71 105 120 127 125 116 112 79
70 69 78 87 86 90 94 98 110 103 98 99 98 90 86 79 78 76 67 56 46 37 37 34 29 28 30 33 38 46 54 62 69 86 54 70 96 96 89 117 111 108 101
Wind_Direction_500mb
227 226 225 227 229 233 240 252 262 279 295 307 316 319 321 319 312 302 294 288 275 266 260 264 262 267 277 298 281 274 272 275 279 282 282 279 272 264 261 263 265 266 265
226 225 226 229 231 236 243 250 262 275 288 301 314 319 322 323 318 310 303 292 280 266 251 250 257 253 78 125 352 328 284 294 293 278 282 282 279 276 267 261 260 261 264
229 228 228 229 230 233 239 247 255 265 273 283 293 305 316 323 318 311 301 291 284 272 261 250 228 159 122 199 270 319 316 316 312 294 296 297 293 289 286 284 280 271 264
229 229 229 229 230 234 237 241 248 255 264 276 287 297 309 319 320 307 297 289 284 289 285 218 220 220 246 270 293 299 304 306 306 308 310 303 299 297 294 292 286 282 277
230 230 229 229 231 233 235 240 246 253 262 270 277 287 299 307 307 292 269 248 285 290 276 271 272 277 289 308 314 313 308 305 304 308 305 303 300 298 297 291 287 285 282
231 231 229 229 230 232 234 239 244 251 257 265 273 280 288 289 281 246 225 262 270 262 269 272 284 292 299 302 308 308 310 309 310 309 308 307 305 301 296 294 292 291 288
230 230 230 230 231 233 235 237 240 246 251 257 267 273 280 276 225 208 204 285 260 234 255 268 281 288 291 296 302 309 313 313 311 307 304 301 299 297 299 296 293 290 287
228 229 230 230 231 232 232 236 241 244 248 254 257 268 258 238 237 224 225 269 219 225 256 306 297 295 301 308 314 321 318 316 316 319 317 312 307 302 297 295 293 290 290
229 229 229 229 230 231 234 237 240 242 245 246 247 241 221 220 200 209 246 221 238 240 297 311 310 307 308 312 316 318 318 325 327 322 317 313 310 307 305 298 298 295 293
230 230 229 230 231 232 232 234 236 239 240 242 244 244 244 241 225 231 227 246 229 273 298 306 310 314 321 325 322 320 330 326 319 314 310 308 308 304 300 299 296 297 295
231 230 228 228 230 230 231 232 233 235 239 241 241 242 243 245 245 241 252 249 251 268 284 299 306 315 323 330 330 329 326 328 327 324 321 321 317 313 309 305 301 299 299
229 229 230 229 230 230 231 232 233 234 235 237 238 242 244 243 249 250 252 263 269 278 288 303 310 316 326 329 329 331 332 333 333 332 329 326 321 315 311 310 309 308 305
227 228 230 229 230 231 232 232 233 235 236 237 238 241 242 246 251 253 256 262 271 282 285 291 300 311 319 322 327 330 332 333 331 330 328 325 321 318 315 314 313 311 310
235 232 231 232 233 232 231 232 234 235 236 236 237 239 240 244 248 251 252 256 264 276 288 295 302 306 317 323 328 328 329 328 328 327 328 325 322 319 318 315 313 311 308
238 237 236 233 234 233 232 232 234 235 235 236 237 238 241 243 245 249 253 258 262 264 279 288 298 307 318 323 325 324 325 325 326 326 326 321 319 319 316 313 311 309 306
240 237 237 235 234 234 233 231 234 234 234 235 236 237 239 241 245 249 254 258 263 265 264 279 287 297 305 309 314 315 318 319 322 321 321 321 321 320 316 313 313 314 312
241 239 235 234 232 232 230 232 234 234 234 234 234 236 238 241 244 247 252 258 264 269 273 280 287 295 300 306 312 316 318 317 316 316 316 318 318 317 316 316 315 315 309
244 243 240 235 234 231 230 231 232 232 231 232 233 234 236 238 241 245 249 253 258 266 274 283 292 299 309 320 321 325 325 327 328 329 330 329 324 318 315 316 319 313 308
246 245 243 240 236 232 232 231 232 233 233 233 234 234 235 237 238 242 246 249 254 259 271 282 290 301 313 318 322 324 327 329 328 329 330 328 326 324 323 325 322 317 312
250 248 245 243 242 238 235 232 231 230 232 233 233 232 233 235 238 241 243 245 249 258 270 279 289 302 312 322 324 326 325 328 327 327 334 328 328 327 327 326 320 316 313
257 252 249 246 244 241 237 233 231 231 231 231 229 229 231 232 235 237 239 243 246 255 267 278 288 300 315 324 323 327 325 326 323 331 333 326 327 324 324 323 319 317 313
257 252 251 247 245 243 240 237 234 232 231 230 228 227 228 229 231 235 238 238 244 256 266 272 290 305 317 317 320 323 325 328 329 334 329 322 324 320 322 319 317 317 311
263 256 250 246 243 242 242 235 233 230 230 229 227 226 226 227 228 230 232 235 240 256 268 279 290 304 306 315 319 320 322 322 320 325 324 316 322 320 321 316 317 315 310
262 259 254 250 243 247 241 235 233 230 227 227 226 225 226 227 227 227 227 229 236 244 255 271 284 292 300 316 321 317 317 316 314 319 323 313 324 319 319 316 316 313 311
256 253 250 248 246 244 238 234 233 230 224 223 222 223 223 223 223 226 225 227 230 236 248 262 279 296 302 308 312 308 313 315 316 316 322 316 324 321 318 316 319 317 311
260 253 248 246 243 240 235 231 231 227 224 219 218 220 222 222 222 222 224 227 230 236 245 256 268 280 291 302 306 304 309 310 312 315 317 315 319 322 315 315 312 301 299
Wind_Speed_850mb
47 44 41 37 33 27 21 17 15 14 14 14 16 18 19 19 19 19 19 18 18 19 19 21 20 18 18 14 13 14 20 26 29 30 30 29 32 38 43 44 42 42 42
53 50 47 42 36 31 26 22 18 17 16 17 18 19 19 20 20 20 20 19 18 17 16 18 18 15 5 5 3 5 14 15 18 25 30 33 32 36 41 45 49 47 46
59 55 51 47 42 36 31 26 23 22 20 17 16 16 17 18 20 20 18 16 14 13 12 12 10 9 16 5 7 6 10 12 20 23 24 30 33 35 39 38 42 47 51
65 62 58 52 47 41 36 32 29 25 22 18 17 17 17 18 18 16 14 11 8 5 3 3 4 5 10 12 14 17 20 24 28 30 29 31 32 32 33 37 40 41 42
71 68 63 58 52 48 42 38 33 30 26 22 19 19 18 17 16 14 9 5 5 6 7 7 7 9 11 13 18 25 29 33 36 36 37 39 39 39 39 38 39 40 41
76 74 68 64 60 55 49 44 37 35 30 26 22 20 18 16 14 13 11 9 7 6 6 8 10 9 12 22 27 32 33 33 35 34 35 36 38 41 45 46 46 46 46
83 79 74 69 66 61 51 47 44 39 33 28 24 20 16 15 13 18 16 4 8 5 5 5 9 15 21 25 25 27 31 34 36 37 38 39 39 38 39 43 48 50 51
89 84 80 76 70 64 60 55 50 44 39 33 26 21 12 15 24 27 27 17 16 7 4 13 14 18 19 23 21 21 23 25 27 30 35 38 42 46 48 47 47 51 51
92 89 85 80 74 69 65 59 54 48 43 39 32 22 11 13 17 22 29 25 21 14 12 14 15 20 19 20 20 20 21 23 30 35 39 41 41 41 44 49 52 53 55
98 95 89 83 78 74 71 64 59 55 51 45 37 33 31 28 19 13 23 28 22 27 22 19 20 18 20 18 19 18 18 33 36 39 41 44 47 51 51 50 51 54 58
103 100 95 90 86 81 75 71 67 63 58 52 46 38 35 32 32 33 26 27 26 29 25 22 22 23 23 19 20 21 36 38 42 46 48 51 53 56 56 56 56 57 57
104 102 98 94 89 85 81 76 70 68 63 56 51 46 41 37 35 35 33 34 32 32 26 26 26 23 23 27 35 45 47 51 53 57 59 60 61 62 63 64 66 67 67
105 104 101 99 96 88 82 77 75 72 68 62 56 51 47 44 42 40 38 37 36 35 29 25 25 30 32 36 45 51 58 60 61 61 60 61 62 65 68 69 68 69 71
91 94 97 98 93 90 85 82 79 75 71 67 62 58 53 49 46 44 40 36 35 35 37 28 34 30 35 45 53 60 62 63 64 66 66 64 66 68 70 72 74 73 70
84 86 89 93 95 92 88 84 83 81 76 72 68 63 58 55 51 47 42 40 38 31 37 34 34 39 47 54 58 65 68 69 70 71 69 70 71 70 71 74 76 73 69
88 85 84 85 91 92 91 88 86 83 80 76 73 69 65 60 54 49 45 43 41 39 36 36 38 43 47 52 55 63 62 63 62 65 69 72 74 73 74 75 78 80 81
91 89 88 86 88 92 94 92 91 87 84 81 79 75 70 63 58 52 48 45 44 45 47 46 45 44 47 53 57 62 66 67 63 61 63 65 68 70 76 82 83 82 83
96 96 93 90 91 93 93 96 97 93 91 88 85 80 74 69 62 56 51 48 45 44 47 48 50 51 53 59 66 67 69 73 75 76 77 74 73 76 80 82 83 84 87
97 100 99 98 97 94 97 98 98 97 94 90 87 83 77 73 65 61 56 50 46 45 45 51 53 52 56 59 65 67 71 75 77 83 82 80 76 80 88 89 90 90 91
96 102 102 100 99 99 99 99 103 100 97 94 89 84 78 73 66 62 58 52 48 44 44 50 51 51 55 59 65 70 75 77 83 85 82 89 93 98 99 98 98 99 101
95 94 95 99 101 103 106 105 105 100 101 99 93 87 82 76 70 66 61 54 46 44 45 48 49 51 54 57 63 69 75 80 88 75 91 105 107 109 108 105 106 104 96
93 93 94 99 102 108 108 103 103 104 103 102 98 92 85 78 74 69 61 54 48 44 46 46 45 50 49 54 58 64 72 80 83 84 104 113 106 115 114 108 103 103 103
89 93 96 103 100 102 108 107 107 104 103 103 99 93 86 81 74 69 62 57 51 47 45 42 46 41 46 46 54 60 67 72 79 89 97 120 109 116 107 117 113 110 108
81 87 94 105 102 99 107 107 107 104 102 101 100 94 86 81 77 71 64 58 48 41 39 38 40 36 38 41 48 56 64 73 79 81 83 113 105 111 120 120 116 116 111
71 82 89 98 99 94 101 102 107 107 105 105 97 90 87 82 74 71 67 57 48 39 37 37 35 31 30 33 41 55 59 70 86 87 79 71 105 120 127 125 116 112 79
70 69 78 87 86 90 94 98 110 103 98 99 98 90 86 79 78 76 67 56 46 37 37 34 29 28 30 33 38 46 54 62 69 86 54 70 96 96 89 117 111 108 101
Wind_Direction_850mb
227 226 225 227 229 233 240 252 262 279 295 307 316 319 321 319 312 302 294 288 275 266 260 264 262 267 277 298 281 274 272 275 279 282 282 279 272 264 261 263 265 266 265
226 225 226 229 231 236 243 250 262 275 288 301 314 319 322 323 318 310 303 292 280 266 251 250 257 253 78 125 352 328 284 294 293 278 282 282 279 276 267 261 260 261 264
229 228 228 229 230 233 239 247 255 265 273 283 293 305 316 323 318 311 301 291 284 272 261 250 228 159 122 199 270 319 316 316 312 294 296 297 293 289 286 284 280 271 264
229 229 229 229 230 234 237 241 248 255 264 276 287 297 309 319 320 307 297 289 284 289 285 218 220 220 246 270 293 299 304 306 306 308 310 303 299 297 294 292 286 282 277
230 230 229 229 231 233 235 240 246 253 262 270 277 287 299 307 307 292 269 248 285 290 276 271 272 277 289 308 314 313 308 305 304 308 305 303 300 298 297 291 287 285 282
231 231 229 229 230 232 234 239 244 251 257 265 273 280 288 289 281 246 225 262 270 262 269 272 284 292 299 302 308 308 310 309 310 309 308 307 305 301 296 294 292 291 288
230 230 230 230 231 233 235 237 240 246 251 257 267 273 280 276 225 208 204 285 260 234 255 268 281 288 291 296 302 309 313 313 311 307 304 301 299 297 299 296 293 290 287
228 229 230 230 231 232 232 236 241 244 248 254 257 268 258 238 237 224 225 269 219 225 256 306 297 295 301 308 314 321 318 316 316 319 317 312 307 302 297 295 293 290 290
229 229 229 229 230 231 234 237 240 242 245 246 247 241 221 220 200 209 246 221 238 240 297 311 310 307 308 312 316 318 318 325 327 322 317 313 310 307 305 298 298 295 293
230 230 229 230 231 232 232 234 236 239 240 242 244 244 244 241 225 231 227 246 229 273 298 306 310 314 321 325 322 320 330 326 319 314 310 308 308 304 300 299 296 297 295
231 230 228 228 230 230 231 232 233 235 239 241 241 242 243 245 245 241 252 249 251 268 284 299 306 315 323 330 330 329 326 328 327 324 321 321 317 313 309 305 301 299 299
229 229 230 229 230 230 231 232 233 234 235 237 238 242 244 243 249 250 252 263 269 278 288 303 310 316 326 329 329 331 332 333 333 332 329 326 321 315 311 310 309 308 305
227 228 230 229 230 231 232 232 233 235 236 237 238 241 242 246 251 253 256 262 271 282 285 291 300 311 319 322 327 330 332 333 331 330 328 325 321 318 315 314 313 311 310
235 232 231 232 233 232 231 232 234 235 236 236 237 239 240 244 248 251 252 256 264 276 288 295 302 306 317 323 328 328 329 328 328 327 328 325 322 319 318 315 313 311 308
238 237 236 233 234 233 232 232 234 235 235 236 237 238 241 243 245 249 253 258 262 264 279 288 298 307 318 323 325 324 325 325 326 326 326 321 319 319 316 313 311 309 306
240 237 237 235 234 234 233 231 234 234 234 235 236 237 239 241 245 249 254 258 263 265 264 279 287 297 305 309 314 315 318 319 322 321 321 321 321 320 316 313 313 314 312
241 239 235 234 232 232 230 232 234 234 234 234 234 236 238 241 244 247 252 258 264 269 273 280 287 295 300 306 312 316 318 317 316 316 316 318 318 317 316 316 315 315 309
244 243 240 235 234 231 230 231 232 232 231 232 233 234 236 238 241 245 249 253 258 266 274 283 292 299 309 320 321 325 325 327 328 329 330 329 324 318 315 316 319 313 308
246 245 243 240 236 232 232 231 232 233 233 233 234 234 235 237 238 242 246 249 254 259 271 282 290 301 313 318 322 324 327 329 328 329 330 328 326 324 323 325 322 317 312
250 248 245 243 242 238 235 232 231 230 232 233 233 232 233 235 238 241 243 245 249 258 270 279 289 302 312 322 324 326 325 328 327 327 334 328 328 327 327 326 320 316 313
257 252 249 246 244 241 237 233 231 231 231 231 229 229 231 232 235 237 239 243 246 255 267 278 288 300 315 324 323 327 325 326 323 331 333 326 327 324 324 323 319 317 313
257 252 251 247 245 243 240 237 234 232 231 230 228 227 228 229 231 235 238 238 244 256 266 272 290 305 317 317 320 323 325 328 329 334 329 322 324 320 322 319 317 317 311
263 256 250 246 243 242 242 235 233 230 230 229 227 226 226 227 228 230 232 235 240 256 268 279 290 304 306 315 319 320 322 322 320 325 324 316 322 320 321 316 317 315 310
262 259 254 250 243 247 241 235 233 230 227 227 226 225 226 227 227 227 227 229 236 244 255 271 284 292 300 316 321 317 317 316 314 319 323 313 324 319 319 316 316 313 311
256 253 250 248 246 244 238 234 233 230 224 223 222 223 223 223 223 226 225 227 230 236 248 262 279 296 302 308 312 308 313 315 316 316 322 316 324 321 318 316 319 317 311
260 253 248 246 243 240 235 231 231 227 224 219 218 220 222 222 222 222 224 227 230 236 245 256 268 280 291 302 306 304 309 310 312 315 317 315 319 322 315 315 312 301 299